TimeADT,TemperatureF,Dew PointF,Humidity,Sea Level PressureIn,VisibilityMPH,Wind Direction,Wind SpeedMPH,Gust SpeedMPH,PrecipitationIn,Events,Conditions,WindDirDegrees,DateUTC
12:00 AM,15,,,30.02,1,NNW,15.0,,,,,340,2013-05-28 03:00:00
12:00 AM,15.8,-9999,N/A,30.02,1.0,North,13.8,-,N/A,,Unknown,350,2013-05-28 03:00:00
12:05 AM,15.8,-9999,N/A,29.81,0.6,North,15.0,-,N/A,,Unknown,350,2013-05-28 03:05:00
12:14 AM,15.8,-9999,N/A,29.80,1.1,North,18.4,-,N/A,,Unknown,360,2013-05-28 03:14:00
12:20 AM,15.8,-9999,N/A,29.80,3.0,North,17.3,23.0,N/A,,Unknown,350,2013-05-28 03:20:00
12:35 AM,14.0,-9999,N/A,29.80,2.5,North,16.1,21.9,N/A,,Unknown,360,2013-05-28 03:35:00
12:36 AM,14.0,-9999,N/A,29.80,1.0,North,15.0,21.9,N/A,,Unknown,360,2013-05-28 03:36:00
12:37 AM,14.0,-9999,N/A,29.80,0.8,North,15.0,20.7,N/A,,Unknown,360,2013-05-28 03:37:00
12:38 AM,14.0,-9999,N/A,29.80,0.6,North,17.3,-,N/A,,Unknown,350,2013-05-28 03:38:00
12:40 AM,14.0,-9999,N/A,29.80,0.4,North,15.0,20.7,N/A,,Unknown,350,2013-05-28 03:40:00
12:44 AM,14.0,-9999,N/A,29.79,0.1,North,15.0,20.7,N/A,,Unknown,350,2013-05-28 03:44:00
12:51 AM,14.0,-9999,N/A,29.79,0.5,North,17.3,-,N/A,,Unknown,350,2013-05-28 03:51:00
12:54 AM,14.0,-9999,N/A,29.79,4.0,North,17.3,-,N/A,,Unknown,350,2013-05-28 03:54:00
1:00 AM,14.0,-9999,N/A,30.00,9.0,NNW,18.4,-,N/A,,Unknown,340,2013-05-28 04:00:00
1:09 AM,14.0,-9999,N/A,29.79,9.0,NNW,15.0,-,N/A,,Unknown,340,2013-05-28 04:09:00
1:34 AM,14.0,-9999,N/A,29.79,9.0,NNW,18.4,-,N/A,,Unknown,340,2013-05-28 04:34:00
2:00 AM,14.0,-9999,N/A,29.99,5.0,NNW,12.7,19.6,N/A,,Unknown,340,2013-05-28 05:00:00
2:08 AM,14.0,-9999,N/A,29.79,0.1,North,10.4,-,N/A,,Unknown,360,2013-05-28 05:08:00
2:17 AM,14.0,-9999,N/A,29.78,0.1,North,10.4,-,N/A,,Unknown,360,2013-05-28 05:17:00
2:37 AM,14.0,-9999,N/A,29.78,0.2,North,12.7,-,N/A,,Unknown,360,2013-05-28 05:37:00
2:45 AM,14.0,-9999,N/A,29.78,0.1,North,11.5,-,N/A,,Unknown,360,2013-05-28 05:45:00
2:59 AM,14.0,-9999,N/A,29.78,0.2,North,12.7,-,N/A,,Unknown,360,2013-05-28 05:59:00
3:00 AM,14,,,29.99,0,North,11.5,,,,,0,2013-05-28 06:00:00
3:00 AM,14.0,-9999,N/A,29.99,0.2,North,12.7,-,N/A,,Unknown,360,2013-05-28 06:00:00
3:08 AM,14.0,-9999,N/A,29.78,0.1,North,12.7,-,N/A,,Unknown,10,2013-05-28 06:08:00
3:28 AM,14.0,-9999,N/A,29.79,0.1,North,11.5,-,N/A,,Unknown,350,2013-05-28 06:28:00
3:33 AM,14.0,-9999,N/A,29.79,0.5,North,10.4,-,N/A,,Unknown,350,2013-05-28 06:33:00
3:35 AM,14.0,-9999,N/A,29.79,1.1,North,9.2,-,N/A,,Unknown,350,2013-05-28 06:35:00
3:38 AM,14.0,-9999,N/A,29.79,0.8,NNW,9.2,-,N/A,,Unknown,340,2013-05-28 06:38:00
3:39 AM,14.0,-9999,N/A,29.79,0.6,NNW,9.2,-,N/A,,Unknown,340,2013-05-28 06:39:00
3:49 AM,12.2,-9999,N/A,29.78,1.1,NNW,10.4,-,N/A,,Unknown,340,2013-05-28 06:49:00
3:59 AM,14.0,-9999,N/A,29.78,2.1,NNW,12.7,-,N/A,,Unknown,340,2013-05-28 06:59:00
4:00 AM,12.2,-9999,N/A,29.99,2.1,NNW,12.7,-,N/A,,Unknown,340,2013-05-28 07:00:00
4:29 AM,14.0,-9999,N/A,29.77,9.0,NW,19.6,-,N/A,,Unknown,320,2013-05-28 07:29:00
4:53 AM,14.0,-9999,N/A,29.78,2.8,NNW,12.7,18.4,N/A,,Unknown,340,2013-05-28 07:53:00
5:00 AM,14.0,-9999,N/A,29.99,1.6,NNW,13.8,-,N/A,,Unknown,340,2013-05-28 08:00:00
5:09 AM,14.0,-9999,N/A,29.78,1.4,North,10.4,-,N/A,,Unknown,350,2013-05-28 08:09:00
5:34 AM,15.8,-9999,N/A,29.78,1.6,NNW,11.5,-,N/A,,Unknown,340,2013-05-28 08:34:00
6:00 AM,16,,,29.99,2,NNW,11.5,,,,,330,2013-05-28 09:00:00
6:00 AM,15.8,-9999,N/A,29.99,2.0,NNW,12.7,-,N/A,,Unknown,340,2013-05-28 09:00:00
6:22 AM,15.8,-9999,N/A,29.78,1.0,NNE,6.9,-,N/A,,Unknown,20,2013-05-28 09:22:00
6:23 AM,15.8,-9999,N/A,29.78,0.5,North,6.9,-,N/A,,Unknown,10,2013-05-28 09:23:00
6:24 AM,15.8,-9999,N/A,29.78,0.4,North,6.9,-,N/A,,Unknown,360,2013-05-28 09:24:00
6:36 AM,15.8,-9999,N/A,29.78,1.0,NW,12.7,-,N/A,,Unknown,310,2013-05-28 09:36:00
6:39 AM,15.8,-9999,N/A,29.78,1.6,NW,13.8,-,N/A,,Unknown,320,2013-05-28 09:39:00
6:51 AM,15.8,-9999,N/A,29.77,9.0,NW,13.8,-,N/A,,Unknown,310,2013-05-28 09:51:00
7:00 AM,15.8,-9999,N/A,29.99,9.0,NW,12.7,-,N/A,,Unknown,320,2013-05-28 10:00:00
8:00 AM,15.8,-9999,N/A,29.99,9.0,NW,8.1,-,N/A,,Unknown,320,2013-05-28 11:00:00
8:10 AM,17.6,-9999,N/A,29.78,1.4,NNE,6.9,-,N/A,,Unknown,30,2013-05-28 11:10:00
8:11 AM,17.6,-9999,N/A,29.78,0.6,NNE,6.9,-,N/A,,Unknown,20,2013-05-28 11:11:00
8:13 AM,17.6,-9999,N/A,29.78,0.2,NE,6.9,-,N/A,,Unknown,40,2013-05-28 11:13:00
8:16 AM,17.6,-9999,N/A,29.78,0.1,North,6.9,-,N/A,,Unknown,10,2013-05-28 11:16:00
8:52 AM,17.6,-9999,N/A,29.79,0.4,North,5.8,-,N/A,,Unknown,10,2013-05-28 11:52:00
8:58 AM,19.4,-9999,N/A,29.79,0.1,NNE,3.5,-,N/A,,Unknown,20,2013-05-28 11:58:00
9:00 AM,19,,,29.99,0,North,4.6,,,,,10,2013-05-28 12:00:00
9:00 AM,19.4,-9999,N/A,29.99,0.1,NNE,3.5,-,N/A,,Unknown,20,2013-05-28 12:00:00
9:59 AM,21.2,-9999,N/A,29.79,0.2,NNE,4.6,-,N/A,,Unknown,20,2013-05-28 12:59:00
10:00 AM,21.2,-9999,N/A,29.99,0.1,North,3.5,-,N/A,,Unknown,10,2013-05-28 13:00:00
11:00 AM,21.2,-9999,N/A,29.99,0.0,North,5.8,-,N/A,,Unknown,10,2013-05-28 14:00:00
11:19 AM,21.2,-9999,N/A,29.79,0.5,NW,3.5,-,N/A,,Unknown,320,2013-05-28 14:19:00
11:22 AM,21.2,-9999,N/A,29.79,1.0,NNW,6.9,-,N/A,,Unknown,340,2013-05-28 14:22:00
11:23 AM,21.2,-9999,N/A,29.79,0.6,North,6.9,-,N/A,,Unknown,350,2013-05-28 14:23:00
11:24 AM,21.2,-9999,N/A,29.79,0.4,North,4.6,-,N/A,,Unknown,360,2013-05-28 14:24:00
11:26 AM,21.2,-9999,N/A,29.79,0.1,North,5.8,-,N/A,,Unknown,10,2013-05-28 14:26:00
12:00 PM,21,,,29.99,0,North,4.6,,,,,10,2013-05-28 15:00:00
12:00 PM,21.2,-9999,N/A,29.99,0.1,NNE,6.9,-,N/A,,Unknown,20,2013-05-28 15:00:00
12:10 PM,21.2,-9999,N/A,29.78,0.6,North,3.5,-,N/A,,Unknown,10,2013-05-28 15:10:00
12:13 PM,21.2,-9999,N/A,29.78,0.2,NNE,4.6,-,N/A,,Unknown,20,2013-05-28 15:13:00
12:14 PM,21.2,-9999,N/A,29.78,0.1,NNE,4.6,-,N/A,,Unknown,20,2013-05-28 15:14:00
12:31 PM,21.2,-9999,N/A,29.78,0.6,NNE,4.6,-,N/A,,Unknown,20,2013-05-28 15:31:00
12:34 PM,21.2,-9999,N/A,29.78,0.4,NNE,3.5,-,N/A,,Unknown,20,2013-05-28 15:34:00
12:36 PM,21.2,-9999,N/A,29.78,0.1,North,2.3,-,N/A,,Unknown,10,2013-05-28 15:36:00
1:00 PM,21.2,-9999,N/A,29.98,0.0,North,5.8,-,N/A,,Unknown,10,2013-05-28 16:00:00
1:19 PM,21.2,-9999,N/A,29.77,0.5,NNE,4.6,-,N/A,,Unknown,30,2013-05-28 16:19:00
1:27 PM,21.2,-9999,N/A,29.77,0.1,NNE,4.6,-,N/A,,Unknown,30,2013-05-28 16:27:00
1:58 PM,21.2,-9999,N/A,29.78,0.5,NNE,6.9,-,N/A,,Unknown,30,2013-05-28 16:58:00
1:59 PM,21.2,-9999,N/A,29.77,0.4,NE,6.9,-,N/A,,Unknown,40,2013-05-28 16:59:00
2:00 PM,21.2,-9999,N/A,29.98,0.2,ENE,4.6,-,N/A,,Unknown,60,2013-05-28 17:00:00
2:03 PM,21.2,-9999,N/A,29.78,0.1,NE,4.6,-,N/A,,Unknown,50,2013-05-28 17:03:00
2:14 PM,21.2,-9999,N/A,29.78,0.5,Calm,Calm,-,N/A,,Unknown,0,2013-05-28 17:14:00
2:16 PM,21.2,-9999,N/A,29.78,0.4,NNE,4.6,-,N/A,,Unknown,30,2013-05-28 17:16:00
2:18 PM,21.2,-9999,N/A,29.78,0.1,NNE,4.6,-,N/A,,Unknown,30,2013-05-28 17:18:00
2:58 PM,19.4,-9999,N/A,29.78,0.1,North,8.1,-,N/A,,Unknown,10,2013-05-28 17:58:00
3:00 PM,19,,,29.98,0,NNE,8.1,,,,,20,2013-05-28 18:00:00
3:00 PM,19.4,-9999,N/A,29.98,0.1,NNE,9.2,-,N/A,,Unknown,20,2013-05-28 18:00:00
3:22 PM,19.4,-9999,N/A,29.78,0.1,NNE,5.8,-,N/A,,Unknown,30,2013-05-28 18:22:00
4:00 PM,19.4,-9999,N/A,29.99,0.1,NNE,6.9,-,N/A,,Unknown,30,2013-05-28 19:00:00
4:20 PM,19.4,-9999,N/A,29.78,0.1,North,6.9,-,N/A,,Unknown,10,2013-05-28 19:20:00
5:00 PM,17.6,-9999,N/A,29.99,0.0,NNE,9.2,-,N/A,,Unknown,30,2013-05-28 20:00:00
6:00 PM,17,,,30.00,0,North,6.9,,,,,10,2013-05-28 21:00:00
6:00 PM,17.6,-9999,N/A,30.00,0.0,North,4.6,-,N/A,,Unknown,10,2013-05-28 21:00:00
7:00 PM,15.8,-9999,N/A,30.00,0.0,North,6.9,-,N/A,,Unknown,360,2013-05-28 22:00:00
8:00 PM,15.8,-9999,N/A,30.00,0.0,NNE,6.9,-,N/A,,Unknown,20,2013-05-28 23:00:00
9:00 PM,16,,,29.99,0,North,8.1,,,,,10,2013-05-29 00:00:00
9:00 PM,15.8,-9999,N/A,29.99,0.0,North,8.1,-,N/A,,Unknown,10,2013-05-29 00:00:00
10:00 PM,15.8,-9999,N/A,29.99,0.0,North,8.1,-,N/A,,Unknown,10,2013-05-29 01:00:00
11:00 PM,15.8,-9999,N/A,29.99,0.0,North,5.8,-,N/A,,Unknown,360,2013-05-29 02:00:00